Content
SEND FEEDBACK

Daily
Averages
Monthly
Summary
United States of America

KELSEY, ILLINOIS


Home > North America > United States > Illinois
Elevation: 460 feet     Latitude: 40 18N     Longitude: 090 04W

WEATHER
 
SELECT A DAY
Number of Records: 331,752;   Date Range: 7/17/01 - 11/22/14
 
SHARE

PRINT THIS DATA

[ ← Previous Day ]
WEATHER ALMANAC - JANUARY 31, 2013
[ Next Day → ]
[ °C ]   °F
Weather ElementAverageHighLow
Temperature13.9 °F23.7 °F (2:55 am)5.9 °F (10:35 pm)
Dewpoint7.9 °F19.4 °F (3:55 am)-1.5 °F (8:35 pm)
Humidity76.9 %87 % (3:55 am)68 % (6:55 pm)
Barometer30.06 in30.35 in (11:55 pm)29.85 in (12:35 am)
Wind Speed21 mph29.9 mph (5:15 pm)
Wind Gust36.8 mph (6:55 pm)
Weather ElementAverage
Visibility9.3 mi
Wind DirectionWNW (289.2 °)

Weather ElementTotal
Precipitation---
Heating Degree Days50.2 (Base 65)
Averaged from 71 records on January 31, 2013
WEATHER CONDITIONS BREAKOUT
WIND DIRECTION BREAKOUT
WEATHER BY HOUR - JANUARY 31, 2013
[ °C ]   °F
Local TimeTemperatureDewpointHumidityBarometerVisibilityWind DirectionWind SpeedGust SpeedPrecipitationEventsConditions
12:35 AM20.1 °F15.3 °F81 %29.85 in10.0 miWest (270°)15.0 mphOvercast
12:55 AM20.8 °F15.8 °F81 %29.85 in10.0 miWest (270°)15.0 mph20.7 mphOvercast
1:15 AM21.2 °F16.3 °F82 %29.85 in10.0 miWest (260°)15.0 mph20.7 mphOvercast
1:35 AM21.7 °F16.7 °F81 %29.85 in10.0 miWest (270°)15.0 mphOvercast
1:55 AM22.5 °F17.4 °F81 %29.86 in10.0 miWest (260°)15.0 mphOvercast
2:15 AM23.0 °F17.8 °F80 %29.86 in10.0 miWest (270°)19.6 mph24.2 mphOvercast
2:35 AM23.5 °F18.1 °F80 %29.87 in10.0 miWest (270°)18.4 mphOvercast
2:55 AM23.7 °F18.3 °F80 %29.87 in10.0 miWest (260°)19.6 mph25.3 mphOvercast
3:15 AM23.7 °F18.0 °F79 %29.86 in10.0 miWest (280°)19.6 mph25.3 mphSnowLight Snow
3:35 AM23.5 °F19.2 °F84 %29.86 in7.0 miWNW (290°)19.6 mphSnowLight Snow
3:55 AM22.6 °F19.4 °F87 %29.86 in3.0 miWest (280°)17.3 mphSnowLight Snow
4:15 AM21.9 °F18.1 °F85 %29.87 in10.0 miWNW (300°)20.7 mph26.5 mphOvercast
4:35 AM21.2 °F16.3 °F82 %29.88 in10.0 miWNW (300°)23.0 mph28.8 mphOvercast
4:55 AM20.1 °F14.5 °F79 %29.88 in10.0 miWNW (300°)23.0 mph28.8 mphOvercast
5:15 AM19.0 °F12.9 °F77 %29.89 in10.0 miWNW (290°)23.0 mph28.8 mphOvercast
5:35 AM18.5 °F13.1 °F79 %29.89 in10.0 miWNW (300°)19.6 mph25.3 mphOvercast
5:55 AM18.0 °F12.2 °F78 %29.90 in10.0 miWNW (300°)17.3 mphOvercast
6:15 AM17.2 °F12.0 °F80 %29.90 in10.0 miWNW (290°)17.3 mphOvercast
6:35 AM15.8 °F12.2 °F86 %29.92 in10.0 miWNW (290°)19.6 mphMostly Cloudy
6:55 AM15.8 °F11.3 °F82 %29.92 in10.0 miWNW (300°)17.3 mphScattered Clouds
7:15 AM15.6 °F10.9 °F82 %29.93 in10.0 miWNW (300°)19.6 mph24.2 mphClear
7:35 AM15.1 °F10.9 °F84 %29.94 in10.0 miWNW (290°)13.8 mphClear
7:55 AM15.4 °F11.1 °F83 %29.95 in10.0 miWNW (290°)19.6 mphMostly Cloudy
8:15 AM15.4 °F11.1 °F83 %29.95 in10.0 miWNW (290°)18.4 mph24.2 mphOvercast
8:35 AM14.9 °F10.2 °F82 %29.97 in10.0 miWest (280°)17.3 mph25.3 mphMostly Cloudy
8:55 AM15.8 °F10.4 °F79 %29.97 in10.0 miWNW (290°)18.4 mphMostly Cloudy
9:15 AM15.3 °F9.3 °F77 %29.98 in10.0 miWNW (290°)21.9 mph27.6 mphMostly Cloudy
9:35 AM15.8 °F10.2 °F79 %30.00 in10.0 miWest (280°)18.4 mphSnowLight Snow
9:55 AM16.3 °F10.2 °F77 %30.00 in10.0 miWNW (290°)20.7 mphOvercast
10:15 AM15.1 °F8.8 °F76 %30.01 in10.0 miWest (280°)20.7 mphOvercast
10:35 AM14.5 °F7.7 °F74 %30.03 in10.0 miWest (280°)20.7 mphOvercast
10:55 AM14.9 °F7.7 °F73 %30.03 in10.0 miWNW (290°)20.7 mph26.5 mphMostly Cloudy
11:15 AM15.4 °F8.4 °F74 %30.04 in10.0 miWNW (290°)19.6 mphOvercast
11:35 AM15.3 °F7.2 °F70 %30.04 in10.0 miWNW (290°)19.6 mph27.6 mphOvercast
11:55 AM15.6 °F8.1 °F72 %30.05 in10.0 miWNW (290°)23.0 mph28.8 mphOvercast
12:15 PM14.5 °F7.7 °F74 %30.05 in10.0 miWNW (290°)20.7 mph27.6 mphOvercast
12:35 PM14.7 °F8.1 °F75 %30.05 in10.0 miWest (280°)24.2 mphOvercast
12:55 PM14.4 °F7.9 °F75 %30.05 in10.0 miWNW (300°)18.4 mph27.6 mphOvercast
1:15 PM13.6 °F7.7 °F77 %30.06 in10.0 miWNW (290°)18.4 mphOvercast
1:35 PM13.8 °F6.4 °F72 %30.07 in10.0 miWNW (300°)19.6 mph27.6 mphOvercast
1:55 PM13.6 °F6.1 °F72 %30.08 in10.0 miWNW (290°)21.9 mph27.6 mphOvercast
2:15 PM13.1 °F7.7 °F79 %30.08 in4.0 miWNW (290°)23.0 mphHaze
2:35 PM12.7 °F6.1 °F75 %30.09 in7.0 miWNW (300°)24.2 mph29.9 mphOvercast
2:55 PM12.2 °F6.8 °F79 %30.10 in4.0 miWNW (290°)24.2 mph29.9 mphHaze
3:15 PM12.7 °F5.9 °F74 %30.12 in10.0 miWNW (290°)23.0 mph29.9 mphOvercast
3:35 PM12.4 °F7.5 °F81 %30.12 in5.0 miWNW (290°)20.7 mphHaze
3:55 PM11.3 °F5.0 °F76 %30.13 in7.0 miNW (310°)21.9 mphOvercast
4:15 PM12.0 °F6.6 °F79 %30.14 in7.0 miWNW (290°)23.0 mphOvercast
4:35 PM11.1 °F4.3 °F74 %30.16 in10.0 miWNW (290°)25.3 mph31.1 mphOvercast
4:55 PM10.8 °F4.6 °F76 %30.16 in7.0 miWNW (290°)27.6 mph32.2 mphOvercast
5:15 PM10.2 °F1.8 °F69 %30.17 in10.0 miWNW (300°)29.9 mph33.4 mphMostly Cloudy
5:35 PM9.5 °F3.2 °F76 %30.18 in5.0 miWNW (290°)28.8 mph33.4 mphHaze
5:55 PM9.3 °F1.6 °F71 %30.19 in10.0 miWNW (300°)27.6 mph33.4 mphMostly Cloudy
6:15 PM8.6 °F1.9 °F74 %30.21 in7.0 miWNW (300°)20.7 mph33.4 mphMostly Cloudy
6:35 PM8.4 °F2.1 °F76 %30.22 in5.0 miWNW (300°)23.0 mph34.5 mphSnowLight Snow
6:55 PM8.1 °F-0.6 °F68 %30.22 in10.0 miWNW (290°)28.8 mph36.8 mphOvercast
7:15 PM7.7 °F-0.4 °F70 %30.24 in10.0 miWNW (290°)26.5 mph32.2 mphMostly Cloudy
7:35 PM7.3 °F0.1 °F72 %30.25 in10.0 miWNW (300°)21.9 mph31.1 mphMostly Cloudy
7:55 PM7.3 °F1.6 °F77 %30.26 in10.0 miWNW (300°)21.9 mphMostly Cloudy
8:15 PM6.8 °F-1.1 °F70 %30.26 in10.0 miWNW (290°)25.3 mph29.9 mphMostly Cloudy
8:35 PM6.6 °F-1.5 °F69 %30.27 in10.0 miWNW (300°)25.3 mph32.2 mphMostly Cloudy
8:55 PM6.4 °F-1.3 °F71 %30.28 in10.0 miWNW (300°)20.7 mphMostly Cloudy
9:15 PM6.4 °F-1.1 °F71 %30.29 in10.0 miWNW (290°)20.7 mph26.5 mphScattered Clouds
9:35 PM6.3 °F-0.9 °F72 %30.30 in10.0 miWNW (290°)19.6 mph32.2 mphOvercast
9:55 PM6.3 °F-0.6 °F73 %30.30 in10.0 miWNW (290°)20.7 mph27.6 mphOvercast
10:15 PM6.3 °F-0.4 °F74 %30.31 in10.0 miWNW (290°)21.9 mph29.9 mphOvercast
10:35 PM5.9 °F-0.6 °F75 %30.31 in10.0 miWNW (290°)19.6 mph31.1 mphOvercast
10:55 PM6.1 °F-0.2 °F75 %30.32 in10.0 miWNW (300°)23.0 mph28.8 mphOvercast
11:15 PM5.9 °F0.1 °F77 %30.33 in10.0 miWNW (290°)23.0 mph28.8 mphOvercast
11:35 PM5.9 °F0.1 °F77 %30.34 in10.0 miWest (280°)20.7 mph26.5 mphOvercast
11:55 PM5.9 °F0.3 °F78 %30.35 in10.0 miWNW (290°)20.7 mph24.2 mphOvercast
Hourly data recorded from KMQB, located miles away from Kelsey, Illinois







STORIES FROM OUR PARTNERS